KORONAS-FOTON (33504 NORAD) Tracking and Keplerian Element Data

This shows tracking and keplerian element data for the satellite.

Feedback or suggestion? Click here.




ElementValue
Catalog33504
NameKORONAS-FOTON
Epoch Orbit69696
Epoch Day262.07991048
Epoch Year2021
RAAN126.3376
Inclination82.4404
Eccentricity0.0020037
Argument of Perigee128.7065
Mean Anonmoly231.5964
Mean Motion15.16112305
Decay Rate3.25E-06
L11 33504U 09003A 21262.07991048 .00000325 00000-0 15075-4 0 9990
L22 33504 82.4404 126.3376 0020037 128.7065 231.5964 15.16112305696969

Live tracking and technical data element details for KORONAS-FOTON (NORAD 33504). KORONAS-FOTON can be tracked NOW for your location showing map with azimuth and elevation plus other details from your city location.

Track the satellite on the map from your city or location and see movement details for azimuth, elevation, latitude, longitude, range, height, and movement on the map or in text.







IsCatalogInMostPopularTable: catalog: 33504, numindb: 542
Update: records affected: 1



GetName: 33504 KORONAS-FOTON

Hit Count: updated at: Sun, 26 Sep 2021 01:12:22 GMT